TimeMST,TemperatureF,Dew PointF,Humidity,Sea Level PressureIn,VisibilityMPH,Wind Direction,Wind SpeedMPH,Gust SpeedMPH,PrecipitationIn,Events,Conditions,WindDirDegrees,DateUTC
12:56 AM,28.9,19.9,69,29.87,10.0,West,10.4,-,N/A,,Clear,270,2012-12-06 07:56:00
1:56 AM,30.9,18.0,59,29.90,10.0,West,12.7,-,N/A,,Clear,280,2012-12-06 08:56:00
2:56 AM,30.9,19.0,61,29.91,10.0,WNW,17.3,-,N/A,,Clear,300,2012-12-06 09:56:00
3:29 AM,30.2,21.2,69,29.87,10.0,WNW,18.4,-,N/A,,Mostly Cloudy,300,2012-12-06 10:29:00
3:56 AM,33.1,21.9,64,29.93,10.0,WNW,18.4,31.1,N/A,,Overcast,300,2012-12-06 10:56:00
4:56 AM,28.9,21.9,75,29.96,10.0,WNW,12.7,-,N/A,,Scattered Clouds,300,2012-12-06 11:56:00
5:56 AM,24.1,19.9,84,29.99,10.0,West,9.2,-,N/A,,Clear,280,2012-12-06 12:56:00
6:56 AM,24.1,21.0,88,30.00,10.0,West,9.2,-,N/A,,Clear,270,2012-12-06 13:56:00
7:56 AM,21.0,19.0,92,30.02,10.0,West,8.1,-,N/A,,Clear,260,2012-12-06 14:56:00
8:56 AM,28.0,21.9,78,30.02,10.0,West,13.8,-,N/A,,Clear,270,2012-12-06 15:56:00
9:56 AM,30.9,21.0,67,30.04,10.0,West,15.0,-,N/A,,Clear,270,2012-12-06 16:56:00
10:56 AM,33.1,19.9,59,30.03,10.0,West,12.7,-,N/A,,Clear,280,2012-12-06 17:56:00
11:56 AM,36.0,19.0,50,30.01,10.0,West,12.7,-,N/A,,Clear,270,2012-12-06 18:56:00
12:56 PM,37.9,18.0,45,30.00,10.0,West,12.7,-,N/A,,Clear,270,2012-12-06 19:56:00
1:56 PM,37.9,17.1,43,29.98,10.0,West,13.8,-,N/A,,Clear,260,2012-12-06 20:56:00
2:56 PM,37.9,16.0,41,29.98,10.0,West,11.5,-,N/A,,Clear,270,2012-12-06 21:56:00
3:56 PM,30.0,15.1,54,29.98,10.0,WSW,4.6,-,N/A,,Clear,240,2012-12-06 22:56:00
4:56 PM,21.9,12.9,68,29.99,10.0,SSW,6.9,-,N/A,,Clear,200,2012-12-06 23:56:00
5:56 PM,26.1,14.0,60,29.99,10.0,WSW,4.6,-,N/A,,Clear,250,2012-12-07 00:56:00
6:56 PM,28.0,16.0,61,29.99,10.0,Calm,Calm,-,N/A,,Overcast,0,2012-12-07 01:56:00
7:56 PM,27.0,16.0,63,29.99,10.0,SSW,3.5,-,N/A,,Mostly Cloudy,200,2012-12-07 02:56:00
8:56 PM,27.0,15.1,61,29.97,10.0,WSW,5.8,-,N/A,,Clear,250,2012-12-07 03:56:00
9:56 PM,25.0,15.1,66,29.97,10.0,WNW,8.1,-,N/A,,Clear,290,2012-12-07 04:56:00
10:56 PM,23.0,14.0,68,29.97,10.0,Calm,Calm,-,N/A,,Partly Cloudy,0,2012-12-07 05:56:00
11:56 PM,23.0,15.1,72,29.96,10.0,West,3.5,-,N/A,,Scattered Clouds,270,2012-12-07 06:56:00